Starlink 6331

operational
NORAD ID: 57351 Int'l Des: 2023-099 Owner: SPXS Country: US Constellation: starlink
LEOCIRCULAR

About Starlink 6331

Description loading...

Live Position

Loading 3D Globe...

Upcoming Passes

Altitude History

Altitude vs Time

uPlot chart will show altitude changes over time

Two-Line Element Set

1 57351U 23099Z 26102.91668981 .00006908 00000-0 26028-3 0 9997
2 57351 43.0003 55.3708 0001265 257.2334 145.3025 15.27585415 6189
Epoch: Apr 12, 2026 • Age: 7 hours

Current Status

Altitude 486.8 km
Velocity 7.63 km/s
Sub-Earth Point 42.36°N, 111.97°W
Launch Date Jul 16, 2023
Age 2.7 years
Type internet

Technical Details

Classification Payload
Mass 305.00 kg
Dry Mass 290.00 kg
Total Mass 305.00 kg
Length 0.20 m
Diameter 2.80 m
Span 9.00 m
Shape Box + pan
Manufacturer SPXS
Bus Type Starlink
Phase Status In Orbit
Owner/State SPXS/US

Large Constellations

Loading constellations...